This is the latest recevied weather packets stored in our database for station/object G4KVI. If no packets are shown the sender has not sent any weather packets the latest 10 day(s).
| Time | Temp. | Humidity | Pressure | Rain* | Wind** | Luminosity | Snow |
|---|---|---|---|---|---|---|---|
| 1777979168 | 13.33° C | 59% | 1016.1 hPa | 0 mm | - | 373 W/m² | - |
| 1777978868 | 13.89° C | 58% | 1015.9 hPa | 0 mm | - | 220 W/m² | - |
| 1777978568 | 13.89° C | 59% | 1016.2 hPa | 0 mm | - | 244 W/m² | - |
| 1777978268 | 13.33° C | 59% | 1016.1 hPa | 0 mm | - | 427 W/m² | - |
| 1777977968 | 13.33° C | 59% | 1015.9 hPa | 0 mm | - | 535 W/m² | - |
| 1777977668 | 13.89° C | 58% | 1015.7 hPa | 0 mm | - | 388 W/m² | - |
| 1777977368 | 13.33° C | 59% | 1016.1 hPa | 0 mm | - | 583 W/m² | - |
| 1777977068 | 13.33° C | 59% | 1016 hPa | 0 mm | - | 454 W/m² | - |
| 1777976768 | 13.89° C | 58% | 1016.2 hPa | 0 mm | - | 562 W/m² | - |
| 1777976468 | 13.89° C | 57% | 1016.4 hPa | 0 mm | - | 533 W/m² | - |
| 1777976168 | 13.33° C | 57% | 1016.1 hPa | 0 mm | - | 525 W/m² | - |
| 1777975868 | 13.89° C | 55% | 1016.2 hPa | 0 mm | - | 445 W/m² | - |
| 1777975568 | 13.89° C | 55% | 1016.3 hPa | 0 mm | - | 539 W/m² | - |
| 1777975268 | 13.89° C | 55% | 1016.2 hPa | 0 mm | - | 626 W/m² | - |
| 1777974968 | 13.89° C | 57% | 1016.2 hPa | 0 mm | - | 620 W/m² | - |
| 1777974668 | 13.89° C | 56% | 1016.2 hPa | 0 mm | - | 620 W/m² | - |
| 1777974368 | 13.89° C | 58% | 1016.1 hPa | 0 mm | - | 610 W/m² | - |
| 1777974068 | 13.89° C | 59% | 1016.2 hPa | 0 mm | - | 596 W/m² | - |
| 1777973768 | 13.89° C | 59% | 1016 hPa | 0 mm | - | 593 W/m² | - |
| 1777973468 | 12.78° C | 61% | 1016.2 hPa | 0 mm | - | 577 W/m² | - |
| 1777973168 | 12.78° C | 60% | 1016 hPa | 0 mm | - | 575 W/m² | - |
| 1777972868 | 12.78° C | 62% | 1016.2 hPa | 0 mm | - | 579 W/m² | - |
| 1777972568 | 12.22° C | 63% | 1016.1 hPa | 0 mm | - | 386 W/m² | - |
| 1777972268 | 12.78° C | 62% | 1016.2 hPa | 0 mm | - | 560 W/m² | - |
| 1777971968 | 12.78° C | 63% | 1016.2 hPa | 0 mm | - | 568 W/m² | - |
* Rain latest hour (hover to see other rain measurements)
** Current wind speed in m/s (hover to see current wind gust speed)